Time,TemperatureF,DewpointF,PressureIn,WindDirection,WindDirectionDegrees,WindSpeedMPH,WindSpeedGustMPH,Humidity,HourlyPrecipIn,Conditions,Clouds,dailyrainin,SoftwareType,DateUTC
2013-10-06 00:00:00,46.6,33.4,29.97,WSW,250,3.0,7.0,60,0.00,-RA,-RA,0.00,WeatherDisplay:10.37,2013-10-06 05:00:00,
2013-10-06 00:10:00,46.8,33.6,29.96,WSW,252,5.0,7.0,60,0.00,-RA,-RA,0.00,WeatherDisplay:10.37,2013-10-06 05:10:00,
2013-10-06 00:15:00,46.6,33.9,29.96,WSW,253,2.0,6.0,61,0.00,-RA,-RA,0.00,WeatherDisplay:10.37,2013-10-06 05:15:00,
2013-10-06 00:20:00,46.4,33.7,29.96,WSW,246,3.0,5.0,61,0.00,-RA,-RA,0.00,WeatherDisplay:10.37,2013-10-06 05:20:00,
2013-10-06 00:25:00,46.3,33.9,29.96,WSW,251,3.0,7.0,62,0.00,-RA,-RA,0.00,WeatherDisplay:10.37,2013-10-06 05:25:00,
2013-10-06 00:35:00,46.1,33.8,29.96,WSW,256,3.0,9.0,62,0.00,-RA,-RA,0.00,WeatherDisplay:10.37,2013-10-06 05:35:00,
2013-10-06 00:40:00,46.0,33.7,29.96,West,261,5.0,8.0,62,0.00,-RA,-RA,0.00,WeatherDisplay:10.37,2013-10-06 05:40:00,
2013-10-06 00:45:00,45.9,33.6,29.96,West,274,3.0,8.0,62,0.00,-RA,-RA,0.00,WeatherDisplay:10.37,2013-10-06 05:45:00,
2013-10-06 00:50:00,45.7,33.4,29.97,West,277,3.0,9.0,62,0.00,-RA,-RA,0.00,WeatherDisplay:10.37,2013-10-06 05:50:00,
2013-10-06 01:00:00,45.2,33.3,29.97,West,280,5.0,9.0,63,0.00,-RA,-RA,0.00,WeatherDisplay:10.37,2013-10-06 06:00:00,
2013-10-06 01:10:00,45.0,33.1,29.96,West,272,5.0,8.0,63,0.00,-RA,-RA,0.00,WeatherDisplay:10.37,2013-10-06 06:10:00,
2013-10-06 01:15:00,45.0,32.7,29.96,West,274,5.0,7.0,62,0.00,-RA,-RA,0.00,WeatherDisplay:10.37,2013-10-06 06:15:00,
2013-10-06 01:20:00,44.9,33.0,29.96,West,275,3.0,7.0,63,0.00,-RA,-RA,0.00,WeatherDisplay:10.37,2013-10-06 06:20:00,
2013-10-06 01:30:00,44.6,33.2,29.96,West,270,2.0,6.0,64,0.00,-RA,-RA,0.00,WeatherDisplay:10.37,2013-10-06 06:30:00,
2013-10-06 01:40:00,44.3,33.2,29.96,West,272,3.0,7.0,65,0.00,-RA,-RA,0.00,WeatherDisplay:10.37,2013-10-06 06:40:00,
2013-10-06 01:45:00,44.2,33.1,29.96,West,271,5.0,9.0,65,0.00,-RA,-RA,0.00,WeatherDisplay:10.37,2013-10-06 06:45:00,
2013-10-06 01:50:00,44.2,33.2,29.97,West,267,5.0,7.0,65,0.00,-RA,-RA,0.00,WeatherDisplay:10.37,2013-10-06 06:50:00,
2013-10-06 01:55:00,44.2,33.5,29.97,West,266,3.0,7.0,66,0.00,-RA,-RA,0.00,WeatherDisplay:10.37,2013-10-06 06:55:00,
2013-10-06 02:00:00,44.1,33.4,29.97,West,266,5.0,7.0,66,0.00,-RA,-RA,0.00,WeatherDisplay:10.37,2013-10-06 07:00:00,
2013-10-06 02:10:00,43.8,33.5,29.96,West,260,3.0,5.0,67,0.00,-RA,-RA,0.00,WeatherDisplay:10.37,2013-10-06 07:10:00,
2013-10-06 02:15:00,43.6,33.4,29.96,West,262,3.0,9.0,67,0.00,-RA,-RA,0.00,WeatherDisplay:10.37,2013-10-06 07:15:00,
2013-10-06 02:20:00,43.6,33.3,29.95,West,264,3.0,6.0,67,0.00,-RA,-RA,0.00,WeatherDisplay:10.37,2013-10-06 07:20:00,
2013-10-06 02:25:00,43.6,33.7,29.95,West,271,3.0,8.0,68,0.00,-RA,-RA,0.00,WeatherDisplay:10.37,2013-10-06 07:25:00,
2013-10-06 02:30:00,43.7,33.4,29.95,West,270,3.0,6.0,67,0.00,-RA,-RA,0.00,WeatherDisplay:10.37,2013-10-06 07:30:00,
2013-10-06 02:40:00,43.7,33.4,29.95,West,278,5.0,8.0,67,0.00,-RA,-RA,0.00,WeatherDisplay:10.37,2013-10-06 07:40:00,
2013-10-06 02:45:00,43.6,33.7,29.95,West,263,5.0,6.0,68,0.00,-RA,-RA,0.00,WeatherDisplay:10.37,2013-10-06 07:45:00,
2013-10-06 02:50:00,43.5,33.6,29.94,West,264,3.0,5.0,68,0.00,-RA,-RA,0.00,WeatherDisplay:10.37,2013-10-06 07:50:00,
2013-10-06 02:55:00,43.3,33.8,29.94,West,262,2.0,7.0,69,0.00,-RA,-RA,0.00,WeatherDisplay:10.37,2013-10-06 07:55:00,
2013-10-06 03:00:00,43.2,34.0,29.94,WSW,257,3.0,5.0,70,0.00,-RA,-RA,0.00,WeatherDisplay:10.37,2013-10-06 08:00:00,
2013-10-06 03:10:00,43.0,34.2,29.94,WSW,248,1.0,7.0,71,0.00,-RA,-RA,0.00,WeatherDisplay:10.37,2013-10-06 08:10:00,
2013-10-06 03:15:00,42.8,34.1,29.93,WSW,249,2.0,5.0,71,0.00,-RA,-RA,0.00,WeatherDisplay:10.37,2013-10-06 08:15:00,
2013-10-06 03:20:00,42.8,34.0,29.93,WSW,250,2.0,5.0,71,0.00,-RA,-RA,0.00,WeatherDisplay:10.37,2013-10-06 08:20:00,
2013-10-06 03:35:00,43.0,34.6,29.92,WSW,250,2.0,6.0,72,0.00,-RA,-RA,0.00,WeatherDisplay:10.37,2013-10-06 08:35:00,
2013-10-06 03:40:00,43.2,34.8,29.92,West,260,3.0,5.0,72,0.00,-RA,-RA,0.00,WeatherDisplay:10.37,2013-10-06 08:40:00,
2013-10-06 03:45:00,43.5,34.7,29.92,West,269,3.0,9.0,71,0.00,-RA,-RA,0.00,WeatherDisplay:10.37,2013-10-06 08:45:00,
2013-10-06 03:55:00,43.9,34.7,29.92,West,273,3.0,5.0,70,0.00,-RA,-RA,0.00,WeatherDisplay:10.37,2013-10-06 08:55:00,
2013-10-06 04:00:00,43.9,35.1,29.92,West,275,3.0,6.0,71,0.00,-RA,-RA,0.00,WeatherDisplay:10.37,2013-10-06 09:00:00,
2013-10-06 04:10:00,44.0,35.2,29.92,West,279,3.0,8.0,71,0.00,-RA,-RA,0.00,WeatherDisplay:10.37,2013-10-06 09:10:00,
2013-10-06 04:15:00,44.0,35.2,29.92,West,279,5.0,8.0,71,0.00,-RA,-RA,0.00,WeatherDisplay:10.37,2013-10-06 09:15:00,
2013-10-06 04:20:00,44.3,35.1,29.92,West,273,7.0,12.0,70,0.00,-RA,-RA,0.00,WeatherDisplay:10.37,2013-10-06 09:20:00,
2013-10-06 04:25:00,44.9,35.3,29.92,West,272,7.0,13.0,69,0.00,-RA,-RA,0.00,WeatherDisplay:10.37,2013-10-06 09:25:00,
2013-10-06 04:30:00,45.6,35.3,29.92,West,271,8.0,16.0,67,0.00,-RA,-RA,0.00,WeatherDisplay:10.37,2013-10-06 09:30:00,
2013-10-06 04:40:00,46.1,35.4,29.92,WNW,284,7.0,17.0,66,0.00,-RA,-RA,0.00,WeatherDisplay:10.37,2013-10-06 09:40:00,
2013-10-06 04:45:00,46.1,34.9,29.92,WNW,287,9.0,16.0,65,0.00,-RA,-RA,0.00,WeatherDisplay:10.37,2013-10-06 09:45:00,
2013-10-06 04:50:00,46.1,35.0,29.92,WNW,285,8.0,15.0,65,0.00,-RA,-RA,0.00,WeatherDisplay:10.37,2013-10-06 09:50:00,
2013-10-06 05:00:00,46.0,35.2,29.92,WNW,284,7.0,12.0,66,0.00,-RA,-RA,0.00,WeatherDisplay:10.37,2013-10-06 10:00:00,
2013-10-06 05:10:00,45.9,35.1,29.92,WNW,282,6.0,14.0,66,0.00,-RA,-RA,0.00,WeatherDisplay:10.37,2013-10-06 10:10:00,
2013-10-06 05:20:00,45.8,35.4,29.93,West,280,6.0,12.0,67,0.00,-RA,-RA,0.00,WeatherDisplay:10.37,2013-10-06 10:20:00,
2013-10-06 05:25:00,45.9,35.5,29.93,WNW,283,6.0,10.0,67,0.00,-RA,-RA,0.00,WeatherDisplay:10.37,2013-10-06 10:25:00,
2013-10-06 05:30:00,45.9,35.6,29.92,WNW,289,7.0,13.0,67,0.00,-RA,-RA,0.00,WeatherDisplay:10.37,2013-10-06 10:30:00,
2013-10-06 05:35:00,45.9,35.2,29.92,WNW,290,7.0,20.0,66,0.00,-RA,-RA,0.00,WeatherDisplay:10.37,2013-10-06 10:35:00,
2013-10-06 05:40:00,45.7,35.4,29.92,WNW,290,5.0,12.0,67,0.00,-RA,-RA,0.00,WeatherDisplay:10.37,2013-10-06 10:40:00,
2013-10-06 05:45:00,45.4,35.1,29.92,WNW,286,5.0,10.0,67,0.00,-RA,-RA,0.00,WeatherDisplay:10.37,2013-10-06 10:45:00,
2013-10-06 05:50:00,45.2,35.3,29.92,WNW,294,7.0,12.0,68,0.00,-RA,-RA,0.00,WeatherDisplay:10.37,2013-10-06 10:50:00,
2013-10-06 06:00:00,45.0,35.4,29.93,WNW,289,6.0,12.0,69,0.00,-RA,-RA,0.00,WeatherDisplay:10.37,2013-10-06 11:00:00,
2013-10-06 06:10:00,45.4,35.8,29.93,WNW,284,8.0,15.0,69,0.00,-RA,-RA,0.00,WeatherDisplay:10.37,2013-10-06 11:10:00,
2013-10-06 06:15:00,45.5,35.9,29.93,West,279,6.0,12.0,69,0.00,-RA,-RA,0.00,WeatherDisplay:10.37,2013-10-06 11:15:00,
2013-10-06 06:20:00,45.6,36.0,29.93,WNW,290,7.0,12.0,69,0.00,-RA,-RA,0.00,WeatherDisplay:10.37,2013-10-06 11:20:00,
2013-10-06 06:25:00,45.4,35.8,29.94,WNW,294,5.0,13.0,69,0.00,-RA,-RA,0.00,WeatherDisplay:10.37,2013-10-06 11:25:00,
2013-10-06 06:30:00,45.1,35.9,29.94,WNW,294,5.0,13.0,70,0.00,-RA,-RA,0.00,WeatherDisplay:10.37,2013-10-06 11:30:00,
2013-10-06 06:35:00,44.8,35.6,29.94,WNW,284,5.0,9.0,70,0.00,-RA,-RA,0.00,WeatherDisplay:10.37,2013-10-06 11:35:00,
2013-10-06 06:40:00,44.6,35.7,29.95,WNW,286,5.0,9.0,71,0.00,-RA,-RA,0.00,WeatherDisplay:10.37,2013-10-06 11:40:00,
2013-10-06 06:45:00,44.5,35.7,29.94,WNW,284,5.0,9.0,71,0.00,-RA,-RA,0.00,WeatherDisplay:10.37,2013-10-06 11:45:00,
2013-10-06 06:50:00,44.6,35.7,29.94,West,275,5.0,11.0,71,0.00,-RA,-RA,0.00,WeatherDisplay:10.37,2013-10-06 11:50:00,
2013-10-06 07:00:00,44.4,35.9,29.94,WNW,290,2.0,7.0,72,0.00,-RA,-RA,0.00,WeatherDisplay:10.37,2013-10-06 12:00:00,
2013-10-06 07:10:00,43.9,35.8,29.95,West,276,2.0,9.0,73,0.00,-RA,-RA,0.00,WeatherDisplay:10.37,2013-10-06 12:10:00,
2013-10-06 07:15:00,43.6,35.8,29.95,West,275,2.0,6.0,74,0.00,-RA,-RA,0.00,WeatherDisplay:10.37,2013-10-06 12:15:00,
2013-10-06 07:20:00,43.5,35.7,29.94,West,273,3.0,6.0,74,0.00,-RA,-RA,0.00,WeatherDisplay:10.37,2013-10-06 12:20:00,
2013-10-06 07:25:00,43.4,36.0,29.95,West,275,2.0,6.0,75,0.00,-RA,-RA,0.00,WeatherDisplay:10.37,2013-10-06 12:25:00,
2013-10-06 07:30:00,43.5,36.1,29.95,West,272,3.0,6.0,75,0.00,-RA,-RA,0.00,WeatherDisplay:10.37,2013-10-06 12:30:00,
2013-10-06 07:40:00,43.7,36.3,29.95,WNW,283,3.0,7.0,75,0.00,-RA,-RA,0.00,WeatherDisplay:10.37,2013-10-06 12:40:00,
2013-10-06 07:50:00,43.9,36.4,29.96,WNW,290,2.0,7.0,75,0.00,-RA,-RA,0.00,WeatherDisplay:10.37,2013-10-06 12:50:00,
2013-10-06 08:00:00,44.2,36.8,29.96,WNW,294,2.0,8.0,75,0.00,-RA,-RA,0.00,WeatherDisplay:10.37,2013-10-06 13:00:00,
2013-10-06 08:10:00,44.7,36.9,29.96,WNW,288,5.0,9.0,74,0.00,-RA,-RA,0.00,WeatherDisplay:10.37,2013-10-06 13:10:00,
2013-10-06 08:15:00,44.9,37.5,29.96,WNW,290,6.0,9.0,75,0.00,-RA,-RA,0.00,WeatherDisplay:10.37,2013-10-06 13:15:00,
2013-10-06 08:20:00,45.2,37.4,29.96,WNW,292,5.0,9.0,74,0.00,-RA,-RA,0.00,WeatherDisplay:10.37,2013-10-06 13:20:00,
2013-10-06 08:25:00,45.5,37.7,29.96,WNW,290,6.0,9.0,74,0.00,-RA,-RA,0.00,WeatherDisplay:10.37,2013-10-06 13:25:00,
2013-10-06 08:30:00,45.5,37.3,29.96,WNW,290,3.0,12.0,73,0.00,-RA,-RA,0.00,WeatherDisplay:10.37,2013-10-06 13:30:00,
2013-10-06 08:40:00,46.1,38.0,29.97,WNW,287,5.0,8.0,73,0.00,-RA,-RA,0.00,WeatherDisplay:10.37,2013-10-06 13:40:00,
2013-10-06 08:45:00,46.4,37.9,29.97,WNW,293,6.0,12.0,72,0.00,-RA,-RA,0.00,WeatherDisplay:10.37,2013-10-06 13:45:00,
2013-10-06 08:50:00,46.6,38.0,29.97,WNW,290,5.0,9.0,72,0.00,-RA,-RA,0.00,WeatherDisplay:10.37,2013-10-06 13:50:00,
2013-10-06 09:00:00,47.2,38.2,29.97,WNW,292,7.0,12.0,71,0.00,-RA,-RA,0.00,WeatherDisplay:10.37,2013-10-06 14:00:00,
2013-10-06 09:05:00,47.4,38.5,29.97,WNW,296,7.0,13.0,71,0.00,-RA,-RA,0.00,WeatherDisplay:10.37,2013-10-06 14:05:00,
2013-10-06 09:15:00,47.9,38.9,29.97,WNW,298,5.0,14.0,71,0.00,-RA,-RA,0.00,WeatherDisplay:10.37,2013-10-06 14:15:00,
2013-10-06 09:20:00,48.1,38.4,29.97,WNW,297,7.0,15.0,69,0.00,-RA,-RA,0.00,WeatherDisplay:10.37,2013-10-06 14:20:00,
2013-10-06 09:30:00,48.4,38.0,29.97,WNW,295,9.0,21.0,67,0.00,-RA,-RA,0.00,WeatherDisplay:10.37,2013-10-06 14:30:00,
2013-10-06 09:40:00,48.6,38.1,29.97,WNW,289,8.0,13.0,67,0.00,-RA,-RA,0.00,WeatherDisplay:10.37,2013-10-06 14:40:00,
2013-10-06 09:45:00,48.7,38.2,29.97,WNW,284,7.0,18.0,67,0.00,-RA,-RA,0.00,WeatherDisplay:10.37,2013-10-06 14:45:00,
2013-10-06 09:50:00,49.0,38.9,29.97,WNW,293,6.0,17.0,68,0.00,-RA,-RA,0.00,WeatherDisplay:10.37,2013-10-06 14:50:00,
2013-10-06 09:55:00,49.4,38.9,29.98,WNW,289,6.0,15.0,67,0.00,-RA,-RA,0.00,WeatherDisplay:10.37,2013-10-06 14:55:00,
2013-10-06 10:00:00,49.0,38.5,29.98,WNW,291,7.0,12.0,67,0.00,-RA,-RA,0.00,WeatherDisplay:10.37,2013-10-06 15:00:00,
2013-10-06 10:10:00,49.5,39.4,29.98,WNW,293,7.0,12.0,68,0.00,-RA,-RA,0.00,WeatherDisplay:10.37,2013-10-06 15:10:00,
2013-10-06 10:15:00,49.5,39.0,29.98,WNW,299,7.0,12.0,67,0.00,-RA,-RA,0.00,WeatherDisplay:10.37,2013-10-06 15:15:00,
2013-10-06 10:25:00,49.8,38.9,29.99,NW,305,8.0,17.0,66,0.00,-RA,-RA,0.00,WeatherDisplay:10.37,2013-10-06 15:25:00,
2013-10-06 10:30:00,49.7,38.8,29.99,WNW,302,7.0,21.0,66,0.00,-RA,-RA,0.00,WeatherDisplay:10.37,2013-10-06 15:30:00,
2013-10-06 10:40:00,49.6,38.7,29.99,WNW,300,8.0,14.0,66,0.00,-RA,-RA,0.00,WeatherDisplay:10.37,2013-10-06 15:40:00,
2013-10-06 10:50:00,50.4,39.1,30.00,WNW,296,9.0,20.0,65,0.00,-RA,-RA,0.00,WeatherDisplay:10.37,2013-10-06 15:50:00,
2013-10-06 11:00:00,51.2,39.4,30.00,WNW,297,9.0,21.0,64,0.00,-RA,-RA,0.00,WeatherDisplay:10.37,2013-10-06 16:00:00,
2013-10-06 11:10:00,51.2,39.0,30.00,WNW,290,9.0,16.0,63,0.00,-RA,-RA,0.00,WeatherDisplay:10.37,2013-10-06 16:10:00,
2013-10-06 11:15:00,50.8,38.7,30.00,WNW,299,9.0,14.0,63,0.00,-RA,-RA,0.00,WeatherDisplay:10.37,2013-10-06 16:15:00,
2013-10-06 11:20:00,51.3,39.2,30.00,NW,306,10.0,17.0,63,0.00,-RA,-RA,0.00,WeatherDisplay:10.37,2013-10-06 16:20:00,
2013-10-06 11:25:00,51.8,40.0,30.00,WNW,301,6.0,11.0,64,0.00,-RA,-RA,0.00,WeatherDisplay:10.37,2013-10-06 16:25:00,
2013-10-06 11:30:00,51.5,38.9,30.00,WNW,295,8.0,13.0,62,0.00,-RA,-RA,0.00,WeatherDisplay:10.37,2013-10-06 16:30:00,
2013-10-06 11:40:00,51.6,38.5,30.00,WNW,302,7.0,15.0,61,0.00,-RA,-RA,0.00,WeatherDisplay:10.37,2013-10-06 16:40:00,
2013-10-06 11:50:00,53.0,39.9,30.00,WNW,289,7.0,12.0,61,0.00,-RA,-RA,0.00,WeatherDisplay:10.37,2013-10-06 16:50:00,
2013-10-06 11:55:00,53.9,40.8,30.00,WNW,292,6.0,12.0,61,0.00,-RA,-RA,0.00,WeatherDisplay:10.37,2013-10-06 16:55:00,
2013-10-06 12:00:00,53.3,38.9,30.00,WNW,293,8.0,15.0,58,0.00,-RA,-RA,0.00,WeatherDisplay:10.37,2013-10-06 17:00:00,
2013-10-06 12:10:00,53.3,39.7,30.00,WNW,288,5.0,16.0,60,0.00,-RA,-RA,0.00,WeatherDisplay:10.37,2013-10-06 17:10:00,
2013-10-06 12:15:00,53.5,39.5,30.00,WNW,290,9.0,12.0,59,0.00,-RA,-RA,0.00,WeatherDisplay:10.37,2013-10-06 17:15:00,
2013-10-06 12:20:00,53.0,39.0,30.00,WNW,302,8.0,14.0,59,0.00,-RA,-RA,0.00,WeatherDisplay:10.37,2013-10-06 17:20:00,
2013-10-06 12:30:00,53.6,40.9,30.00,WNW,300,5.0,12.0,62,0.00,-RA,-RA,0.00,WeatherDisplay:10.37,2013-10-06 17:30:00,
2013-10-06 12:40:00,54.2,40.2,30.00,WNW,290,6.0,10.0,59,0.00,-RA,-RA,0.00,WeatherDisplay:10.37,2013-10-06 17:40:00,
2013-10-06 12:45:00,54.9,40.4,30.00,WNW,294,9.0,14.0,58,0.00,-RA,-RA,0.00,WeatherDisplay:10.37,2013-10-06 17:45:00,
2013-10-06 12:50:00,55.2,39.8,30.00,WNW,293,8.0,14.0,56,0.00,-RA,-RA,0.00,WeatherDisplay:10.37,2013-10-06 17:50:00,
2013-10-06 13:00:00,54.8,40.3,30.00,WNW,282,7.0,13.0,58,0.00,-RA,-RA,0.00,WeatherDisplay:10.37,2013-10-06 18:00:00,
2013-10-06 13:10:00,54.8,40.3,29.99,WNW,301,5.0,12.0,58,0.00,-RA,-RA,0.00,WeatherDisplay:10.37,2013-10-06 18:10:00,
2013-10-06 13:20:00,55.8,40.8,29.99,WNW,286,7.0,12.0,57,0.00,-RA,-RA,0.00,WeatherDisplay:10.37,2013-10-06 18:20:00,
2013-10-06 13:25:00,56.2,40.7,29.99,WNW,286,6.0,14.0,56,0.00,-RA,-RA,0.00,WeatherDisplay:10.37,2013-10-06 18:25:00,
2013-10-06 13:30:00,55.6,40.6,29.98,WNW,284,5.0,12.0,57,0.00,-RA,-RA,0.00,WeatherDisplay:10.37,2013-10-06 18:30:00,
2013-10-06 13:40:00,56.6,41.5,29.98,West,277,5.0,9.0,57,0.00,-RA,-RA,0.00,WeatherDisplay:10.37,2013-10-06 18:40:00,
2013-10-06 13:45:00,57.6,42.0,29.98,West,267,6.0,12.0,56,0.00,-RA,-RA,0.00,WeatherDisplay:10.37,2013-10-06 18:45:00,
2013-10-06 13:50:00,57.4,40.4,29.98,West,276,6.0,9.0,53,0.00,-RA,-RA,0.00,WeatherDisplay:10.37,2013-10-06 18:50:00,
2013-10-06 14:00:00,57.6,41.5,29.97,West,272,5.0,12.0,55,0.00,-RA,-RA,0.00,WeatherDisplay:10.37,2013-10-06 19:00:00,
2013-10-06 14:10:00,58.0,41.4,29.96,West,275,5.0,11.0,54,0.00,-RA,-RA,0.00,WeatherDisplay:10.37,2013-10-06 19:10:00,
2013-10-06 14:20:00,57.3,41.3,29.97,WNW,283,5.0,9.0,55,0.00,-RA,-RA,0.00,WeatherDisplay:10.37,2013-10-06 19:20:00,
2013-10-06 14:25:00,57.3,41.8,29.97,West,280,5.0,9.0,56,0.00,-RA,-RA,0.00,WeatherDisplay:10.37,2013-10-06 19:25:00,
2013-10-06 14:30:00,57.7,42.1,29.96,West,266,5.0,9.0,56,0.00,-RA,-RA,0.00,WeatherDisplay:10.37,2013-10-06 19:30:00,
2013-10-06 14:40:00,58.1,42.0,29.96,West,266,5.0,10.0,55,0.00,-RA,-RA,0.00,WeatherDisplay:10.37,2013-10-06 19:40:00,
2013-10-06 14:45:00,58.6,42.0,29.96,West,278,3.0,14.0,54,0.00,-RA,-RA,0.00,WeatherDisplay:10.37,2013-10-06 19:45:00,
2013-10-06 14:50:00,58.4,41.3,29.96,WNW,284,6.0,10.0,53,0.00,-RA,-RA,0.00,WeatherDisplay:10.37,2013-10-06 19:50:00,
2013-10-06 15:00:00,58.0,41.5,29.96,West,280,7.0,15.0,54,0.00,-RA,-RA,0.00,WeatherDisplay:10.37,2013-10-06 20:00:00,
2013-10-06 15:10:00,58.8,42.1,29.96,WSW,255,5.0,12.0,54,0.00,-RA,-RA,0.00,WeatherDisplay:10.37,2013-10-06 20:10:00,
2013-10-06 15:15:00,58.6,42.0,29.95,WSW,257,7.0,13.0,54,0.00,-RA,-RA,0.00,WeatherDisplay:10.37,2013-10-06 20:15:00,
2013-10-06 15:20:00,58.0,41.9,29.96,West,281,7.0,13.0,55,0.00,-RA,-RA,0.00,WeatherDisplay:10.37,2013-10-06 20:20:00,
2013-10-06 15:25:00,57.6,42.0,29.96,West,279,7.0,12.0,56,0.00,-RA,-RA,0.00,WeatherDisplay:10.37,2013-10-06 20:25:00,
2013-10-06 15:30:00,57.5,42.4,29.96,West,274,5.0,10.0,57,0.00,-RA,-RA,0.00,WeatherDisplay:10.37,2013-10-06 20:30:00,
2013-10-06 15:40:00,57.9,43.2,29.96,West,269,6.0,9.0,58,0.00,-RA,-RA,0.00,WeatherDisplay:10.37,2013-10-06 20:40:00,
2013-10-06 15:45:00,57.9,42.8,29.96,West,276,7.0,12.0,57,0.00,-RA,-RA,0.00,WeatherDisplay:10.37,2013-10-06 20:45:00,
2013-10-06 15:50:00,57.6,42.5,29.96,WNW,282,6.0,14.0,57,0.00,-RA,-RA,0.00,WeatherDisplay:10.37,2013-10-06 20:50:00,
2013-10-06 16:00:00,57.0,42.8,29.96,West,280,6.0,14.0,59,0.00,-RA,-RA,0.00,WeatherDisplay:10.37,2013-10-06 21:00:00,
2013-10-06 16:10:00,57.0,42.8,29.96,West,271,6.0,10.0,59,0.00,-RA,-RA,0.00,WeatherDisplay:10.37,2013-10-06 21:10:00,
2013-10-06 16:15:00,56.9,42.7,29.97,West,275,7.0,12.0,59,0.00,-RA,-RA,0.00,WeatherDisplay:10.37,2013-10-06 21:15:00,
2013-10-06 16:20:00,56.8,42.6,29.97,West,273,7.0,12.0,59,0.00,-RA,-RA,0.00,WeatherDisplay:10.37,2013-10-06 21:20:00,
2013-10-06 16:30:00,57.0,43.2,29.97,West,277,6.0,12.0,60,0.00,-RA,-RA,0.00,WeatherDisplay:10.37,2013-10-06 21:30:00,
2013-10-06 16:40:00,57.3,43.1,29.97,WNW,283,8.0,17.0,59,0.00,-RA,-RA,0.00,WeatherDisplay:10.37,2013-10-06 21:40:00,
2013-10-06 16:45:00,57.0,42.4,29.97,WNW,286,10.0,20.0,58,0.00,-RA,-RA,0.00,WeatherDisplay:10.37,2013-10-06 21:45:00,
2013-10-06 16:50:00,56.7,42.6,29.98,WNW,286,8.0,14.0,59,0.00,-RA,-RA,0.00,WeatherDisplay:10.37,2013-10-06 21:50:00,
2013-10-06 16:55:00,56.6,42.9,29.98,WNW,289,9.0,17.0,60,0.00,-RA,-RA,0.00,WeatherDisplay:10.37,2013-10-06 21:55:00,
2013-10-06 17:00:00,56.5,42.8,29.98,WNW,297,7.0,15.0,60,0.00,-RA,-RA,0.00,WeatherDisplay:10.37,2013-10-06 22:00:00,
2013-10-06 17:10:00,56.7,43.8,29.98,WNW,300,5.0,12.0,62,0.00,-RA,-RA,0.00,WeatherDisplay:10.37,2013-10-06 22:10:00,
2013-10-06 17:15:00,57.0,42.8,29.98,WNW,298,8.0,15.0,59,0.00,-RA,-RA,0.00,WeatherDisplay:10.37,2013-10-06 22:15:00,
2013-10-06 17:25:00,56.3,43.0,29.98,WNW,297,8.0,12.0,61,0.00,-RA,-RA,0.00,WeatherDisplay:10.37,2013-10-06 22:25:00,
2013-10-06 17:30:00,56.2,43.3,29.98,WNW,296,6.0,12.0,62,0.00,-RA,-RA,0.00,WeatherDisplay:10.37,2013-10-06 22:30:00,
2013-10-06 17:40:00,56.2,43.3,29.98,WNW,295,6.0,10.0,62,0.00,-RA,-RA,0.00,WeatherDisplay:10.37,2013-10-06 22:40:00,
2013-10-06 17:45:00,56.2,42.5,29.98,WNW,302,9.0,16.0,60,0.00,-RA,-RA,0.00,WeatherDisplay:10.37,2013-10-06 22:45:00,
2013-10-06 17:55:00,56.2,42.5,29.99,WNW,302,10.0,17.0,60,0.00,-RA,-RA,0.00,WeatherDisplay:10.37,2013-10-06 22:55:00,
2013-10-06 18:00:00,56.1,42.8,29.99,WNW,299,8.0,12.0,61,0.00,-RA,-RA,0.00,WeatherDisplay:10.37,2013-10-06 23:00:00,
2013-10-06 18:10:00,55.6,41.9,30.00,WNW,295,10.0,15.0,60,0.00,-RA,-RA,0.00,WeatherDisplay:10.37,2013-10-06 23:10:00,
2013-10-06 18:15:00,55.4,42.2,30.00,WNW,294,9.0,15.0,61,0.00,-RA,-RA,0.00,WeatherDisplay:10.37,2013-10-06 23:15:00,
2013-10-06 18:20:00,55.3,42.0,30.01,NW,305,9.0,14.0,61,0.00,-RA,-RA,0.00,WeatherDisplay:10.37,2013-10-06 23:20:00,
2013-10-06 18:25:00,55.1,42.3,30.01,NW,312,8.0,15.0,62,0.00,-RA,-RA,0.00,WeatherDisplay:10.37,2013-10-06 23:25:00,
2013-10-06 18:30:00,55.0,41.7,30.01,NW,311,8.0,15.0,61,0.00,-RA,-RA,0.00,WeatherDisplay:10.37,2013-10-06 23:30:00,
2013-10-06 18:40:00,54.9,42.1,30.01,NW,310,7.0,10.0,62,0.00,-RA,-RA,0.00,WeatherDisplay:10.37,2013-10-06 23:40:00,
2013-10-06 18:50:00,54.7,42.4,30.02,NW,311,6.0,15.0,63,0.00,-RA,-RA,0.00,WeatherDisplay:10.37,2013-10-06 23:50:00,
2013-10-06 19:00:00,54.6,42.6,30.02,NW,314,6.0,10.0,64,0.00,-RA,-RA,0.00,WeatherDisplay:10.37,2013-10-07 00:00:00,
2013-10-06 19:10:00,54.3,42.8,30.02,NW,310,6.0,8.0,65,0.00,-RA,-RA,0.00,WeatherDisplay:10.37,2013-10-07 00:10:00,
2013-10-06 19:15:00,54.3,42.7,30.02,NW,311,5.0,9.0,65,0.00,-RA,-RA,0.00,WeatherDisplay:10.37,2013-10-07 00:15:00,
2013-10-06 19:20:00,54.2,42.6,30.02,NW,315,5.0,8.0,65,0.00,-RA,-RA,0.00,WeatherDisplay:10.37,2013-10-07 00:20:00,
2013-10-06 19:30:00,54.0,42.9,30.03,NW,307,3.0,5.0,66,0.00,-RA,-RA,0.00,WeatherDisplay:10.37,2013-10-07 00:30:00,
2013-10-06 19:40:00,53.9,42.8,30.03,NW,309,5.0,6.0,66,0.00,-RA,-RA,0.00,WeatherDisplay:10.37,2013-10-07 00:40:00,
2013-10-06 19:45:00,53.8,43.1,30.04,NW,308,3.0,6.0,67,0.00,-RA,-RA,0.00,WeatherDisplay:10.37,2013-10-07 00:45:00,
2013-10-06 19:55:00,53.6,43.3,30.04,NW,319,3.0,6.0,68,0.00,-RA,-RA,0.00,WeatherDisplay:10.37,2013-10-07 00:55:00,
2013-10-06 20:00:00,53.5,43.2,30.04,NNW,328,3.0,5.0,68,0.00,-RA,-RA,0.00,WeatherDisplay:10.37,2013-10-07 01:00:00,
2013-10-06 20:10:00,53.3,43.0,30.04,NNW,334,3.0,6.0,68,0.00,-RA,-RA,0.00,WeatherDisplay:10.37,2013-10-07 01:10:00,
2013-10-06 20:20:00,53.1,43.2,30.04,NNW,340,3.0,6.0,69,0.00,-RA,-RA,0.00,WeatherDisplay:10.37,2013-10-07 01:20:00,
2013-10-06 20:30:00,53.0,43.1,30.04,NNW,338,3.0,6.0,69,0.00,-RA,-RA,0.00,WeatherDisplay:10.37,2013-10-07 01:30:00,
2013-10-06 20:40:00,53.0,43.1,30.04,NW,321,3.0,6.0,69,0.00,-RA,-RA,0.00,WeatherDisplay:10.37,2013-10-07 01:40:00,
2013-10-06 20:50:00,52.8,43.2,30.05,NNW,329,3.0,5.0,70,0.00,-RA,-RA,0.00,WeatherDisplay:10.37,2013-10-07 01:50:00,
2013-10-06 20:55:00,52.7,43.1,30.05,NNW,329,2.0,4.0,70,0.00,-RA,-RA,0.00,WeatherDisplay:10.37,2013-10-07 01:55:00,
2013-10-06 21:00:00,52.6,43.1,30.05,NNW,329,3.0,4.0,70,0.00,-RA,-RA,0.00,WeatherDisplay:10.37,2013-10-07 02:00:00,
2013-10-06 21:10:00,52.2,43.0,30.06,NNW,329,2.0,4.0,71,0.00,-RA,-RA,0.00,WeatherDisplay:10.37,2013-10-07 02:10:00,
2013-10-06 21:15:00,51.8,43.1,30.06,NNW,329,2.0,4.0,72,0.00,-RA,-RA,0.00,WeatherDisplay:10.37,2013-10-07 02:15:00,
2013-10-06 21:20:00,51.5,42.8,30.06,NNW,329,1.0,3.0,72,0.00,-RA,-RA,0.00,WeatherDisplay:10.37,2013-10-07 02:20:00,
2013-10-06 21:25:00,51.2,42.8,30.06,NNW,329,1.0,2.0,73,0.00,-RA,-RA,0.00,WeatherDisplay:10.37,2013-10-07 02:25:00,
2013-10-06 21:30:00,50.9,42.9,30.06,NNW,329,0.0,2.0,74,0.00,-RA,-RA,0.00,WeatherDisplay:10.37,2013-10-07 02:30:00,
2013-10-06 21:40:00,50.5,42.8,30.06,NNW,329,0.0,1.0,75,0.00,-RA,-RA,0.00,WeatherDisplay:10.37,2013-10-07 02:40:00,
2013-10-06 21:45:00,50.3,42.7,30.06,NNW,329,0.0,2.0,75,0.00,-RA,-RA,0.00,WeatherDisplay:10.37,2013-10-07 02:45:00,
2013-10-06 21:50:00,50.0,42.8,30.07,NNW,329,0.0,2.0,76,0.00,-RA,-RA,0.00,WeatherDisplay:10.37,2013-10-07 02:50:00,
2013-10-06 22:00:00,49.7,42.7,30.07,NNW,329,0.0,2.0,77,0.00,-RA,-RA,0.00,WeatherDisplay:10.37,2013-10-07 03:00:00,
2013-10-06 22:10:00,49.5,42.5,30.07,NNW,329,0.0,2.0,77,0.00,-RA,-RA,0.00,WeatherDisplay:10.37,2013-10-07 03:10:00,
2013-10-06 22:15:00,49.4,42.8,30.07,NNW,329,1.0,2.0,78,0.00,-RA,-RA,0.00,WeatherDisplay:10.37,2013-10-07 03:15:00,
2013-10-06 22:20:00,49.3,42.7,30.07,NNW,329,1.0,2.0,78,0.00,-RA,-RA,0.00,WeatherDisplay:10.37,2013-10-07 03:20:00,
2013-10-06 22:30:00,48.9,42.7,30.08,NNW,329,0.0,2.0,79,0.00,-RA,-RA,0.00,WeatherDisplay:10.37,2013-10-07 03:30:00,
2013-10-06 22:40:00,48.7,42.4,30.08,NNW,329,0.0,1.0,79,0.00,-RA,-RA,0.00,WeatherDisplay:10.37,2013-10-07 03:40:00,
2013-10-06 22:45:00,48.5,42.3,30.08,NNW,329,0.0,2.0,79,0.00,-RA,-RA,0.00,WeatherDisplay:10.37,2013-10-07 03:45:00,
2013-10-06 22:50:00,47.9,41.4,30.08,NNW,329,1.0,3.0,78,0.00,-RA,-RA,0.00,WeatherDisplay:10.37,2013-10-07 03:50:00,
2013-10-06 23:05:00,46.4,41.5,30.08,NW,310,2.0,3.0,83,0.00,-RA,-RA,0.00,WeatherDisplay:10.37,2013-10-07 04:05:00,
2013-10-06 23:10:00,46.2,41.3,30.08,West,266,2.0,4.0,83,0.00,-RA,-RA,0.00,WeatherDisplay:10.37,2013-10-07 04:10:00,
2013-10-06 23:15:00,46.1,41.5,30.08,WSW,249,1.0,3.0,84,0.00,-RA,-RA,0.00,WeatherDisplay:10.37,2013-10-07 04:15:00,
2013-10-06 23:20:00,46.1,41.5,30.08,WSW,249,1.0,3.0,84,0.00,-RA,-RA,0.00,WeatherDisplay:10.37,2013-10-07 04:20:00,
2013-10-06 23:30:00,46.4,41.8,30.08,WSW,249,0.0,1.0,84,0.00,-RA,-RA,0.00,WeatherDisplay:10.37,2013-10-07 04:30:00,
2013-10-06 23:35:00,46.7,42.1,30.07,WSW,249,0.0,2.0,84,0.00,-RA,-RA,0.00,WeatherDisplay:10.37,2013-10-07 04:35:00,
2013-10-06 23:40:00,47.0,42.1,30.07,WSW,249,0.0,2.0,83,0.00,-RA,-RA,0.00,WeatherDisplay:10.37,2013-10-07 04:40:00,
2013-10-06 23:45:00,47.1,42.2,30.07,WSW,252,1.0,3.0,83,0.00,-RA,-RA,0.00,WeatherDisplay:10.37,2013-10-07 04:45:00,
2013-10-06 23:50:00,47.4,42.2,30.07,WNW,290,1.0,3.0,82,0.00,-RA,-RA,0.00,WeatherDisplay:10.37,2013-10-07 04:50:00,
2013-10-06 23:55:00,47.7,42.2,30.08,NW,307,1.0,3.0,81,0.00,-RA,-RA,0.00,WeatherDisplay:10.37,2013-10-07 04:55:00,